Year,Month,Day,Hour,Minute,Value (Times are PST for temperature in C)
2017,11,18,00,00,5.40
2017,11,18,00,01,5.40
2017,11,18,00,02,5.40
2017,11,18,00,03,5.40
2017,11,18,00,04,5.40
2017,11,18,00,05,5.40
2017,11,18,00,06,5.40
2017,11,18,00,07,5.50
2017,11,18,00,08,5.50
2017,11,18,00,09,5.50
2017,11,18,00,10,5.50
2017,11,18,00,11,5.50
2017,11,18,00,12,5.50
2017,11,18,00,13,5.50
2017,11,18,00,14,5.50
2017,11,18,00,15,5.50
2017,11,18,00,16,5.40
2017,11,18,00,17,5.40
2017,11,18,00,18,5.40
2017,11,18,00,19,5.40
2017,11,18,00,20,5.40
2017,11,18,00,21,5.40
2017,11,18,00,22,5.40
2017,11,18,00,23,5.40
2017,11,18,00,24,5.40
2017,11,18,00,25,5.40
2017,11,18,00,26,5.40
2017,11,18,00,27,5.30
2017,11,18,00,28,5.30
2017,11,18,00,29,5.30
2017,11,18,00,30,5.30
2017,11,18,00,31,5.30
2017,11,18,00,32,5.30
2017,11,18,00,33,5.30
2017,11,18,00,34,5.30
2017,11,18,00,35,5.30
2017,11,18,00,36,5.30
2017,11,18,00,37,5.30
2017,11,18,00,38,5.30
2017,11,18,00,39,5.30
2017,11,18,00,40,5.30
2017,11,18,00,41,5.30
2017,11,18,00,42,5.30
2017,11,18,00,43,5.30
2017,11,18,00,44,5.30
2017,11,18,00,45,5.30
2017,11,18,00,46,5.30
2017,11,18,00,47,5.30
2017,11,18,00,48,5.30
2017,11,18,00,49,5.30
2017,11,18,00,50,5.30
2017,11,18,00,51,5.30
2017,11,18,00,52,5.30
2017,11,18,00,53,5.30
2017,11,18,00,54,5.30
2017,11,18,00,55,5.30
2017,11,18,00,56,5.30
2017,11,18,00,57,5.30
2017,11,18,00,58,5.30
2017,11,18,00,59,5.20
2017,11,18,01,00,5.20
2017,11,18,01,01,5.20
2017,11,18,01,02,5.20
2017,11,18,01,03,5.20
2017,11,18,01,04,5.20
2017,11,18,01,05,5.20
2017,11,18,01,06,5.20
2017,11,18,01,07,5.20
2017,11,18,01,08,5.20
2017,11,18,01,09,5.20
2017,11,18,01,10,5.20
2017,11,18,01,11,5.20
2017,11,18,01,12,5.20
2017,11,18,01,13,5.20
2017,11,18,01,14,5.20
2017,11,18,01,15,5.10
2017,11,18,01,16,5.10
2017,11,18,01,17,5.10
2017,11,18,01,18,5.10
2017,11,18,01,19,5.10
2017,11,18,01,20,5.00
2017,11,18,01,21,5.00
2017,11,18,01,22,5.00
2017,11,18,01,23,4.90
2017,11,18,01,24,4.90
2017,11,18,01,25,4.90
2017,11,18,01,26,4.90
2017,11,18,01,27,4.90
2017,11,18,01,28,4.90
2017,11,18,01,29,4.90
2017,11,18,01,30,4.90
2017,11,18,01,31,4.90
2017,11,18,01,32,4.90
2017,11,18,01,33,4.90
2017,11,18,01,34,4.90
2017,11,18,01,35,5.00
2017,11,18,01,36,5.00
2017,11,18,01,37,5.00
2017,11,18,01,38,5.10
2017,11,18,01,39,5.10
2017,11,18,01,40,5.10
2017,11,18,01,41,5.10
2017,11,18,01,42,5.10
2017,11,18,01,43,5.10
2017,11,18,01,44,5.10
2017,11,18,01,45,5.10
2017,11,18,01,46,5.10
2017,11,18,01,47,5.10
2017,11,18,01,48,5.10
2017,11,18,01,49,5.10
2017,11,18,01,50,5.20
2017,11,18,01,51,5.20
2017,11,18,01,52,5.20
2017,11,18,01,53,5.20
2017,11,18,01,54,5.20
2017,11,18,01,55,5.20
2017,11,18,01,56,5.20
2017,11,18,01,57,5.20
2017,11,18,01,58,5.10
2017,11,18,01,59,5.10
2017,11,18,02,00,5.10
2017,11,18,02,01,5.10
2017,11,18,02,02,5.10
2017,11,18,02,03,5.10
2017,11,18,02,04,5.10
2017,11,18,02,05,5.10
2017,11,18,02,06,5.10
2017,11,18,02,07,5.10
2017,11,18,02,08,5.10
2017,11,18,02,09,5.00
2017,11,18,02,10,5.00
2017,11,18,02,11,5.00
2017,11,18,02,12,5.00
2017,11,18,02,13,5.00
2017,11,18,02,14,5.00
2017,11,18,02,15,4.90
2017,11,18,02,16,4.90
2017,11,18,02,17,4.90
2017,11,18,02,18,4.90
2017,11,18,02,19,4.90
2017,11,18,02,20,4.90
2017,11,18,02,21,4.90
2017,11,18,02,22,4.90
2017,11,18,02,23,4.90
2017,11,18,02,24,4.90
2017,11,18,02,25,4.90
2017,11,18,02,26,4.90
2017,11,18,02,27,4.90
2017,11,18,02,28,4.90
2017,11,18,02,29,4.90
2017,11,18,02,30,4.90
2017,11,18,02,31,4.90
2017,11,18,02,32,4.90
2017,11,18,02,33,4.90
2017,11,18,02,34,4.90
2017,11,18,02,35,5.00
2017,11,18,02,36,5.00
2017,11,18,02,37,5.00
2017,11,18,02,38,5.00
2017,11,18,02,39,5.00
2017,11,18,02,40,5.00
2017,11,18,02,41,5.00
2017,11,18,02,42,5.00
2017,11,18,02,43,5.00
2017,11,18,02,44,5.00
2017,11,18,02,45,5.00
2017,11,18,02,46,5.00
2017,11,18,02,47,5.00
2017,11,18,02,48,5.00
2017,11,18,02,49,4.90
2017,11,18,02,50,4.90
2017,11,18,02,51,4.90
2017,11,18,02,52,4.90
2017,11,18,02,53,4.90
2017,11,18,02,54,4.90
2017,11,18,02,55,4.90
2017,11,18,02,56,4.90
2017,11,18,02,57,4.90
2017,11,18,02,58,4.90
2017,11,18,02,59,4.90
2017,11,18,03,00,4.90
2017,11,18,03,01,4.90
2017,11,18,03,02,4.90
2017,11,18,03,03,4.90
2017,11,18,03,04,4.90
2017,11,18,03,05,4.90
2017,11,18,03,06,4.90
2017,11,18,03,07,4.90
2017,11,18,03,08,4.90
2017,11,18,03,09,4.90
2017,11,18,03,10,5.00
2017,11,18,03,11,5.00
2017,11,18,03,12,4.90
2017,11,18,03,13,4.90
2017,11,18,03,14,4.90
2017,11,18,03,15,4.90
2017,11,18,03,16,4.90
2017,11,18,03,17,4.90
2017,11,18,03,18,4.90
2017,11,18,03,19,4.90
2017,11,18,03,20,4.90
2017,11,18,03,21,4.90
2017,11,18,03,22,4.90
2017,11,18,03,23,4.80
2017,11,18,03,24,4.80
2017,11,18,03,25,4.80
2017,11,18,03,26,4.80
2017,11,18,03,27,4.70
2017,11,18,03,28,4.70
2017,11,18,03,29,4.60
2017,11,18,03,30,4.60
2017,11,18,03,31,4.50
2017,11,18,03,32,4.50
2017,11,18,03,33,4.50
2017,11,18,03,34,4.40
2017,11,18,03,35,4.40
2017,11,18,03,36,4.40
2017,11,18,03,37,4.40
2017,11,18,03,38,4.40
2017,11,18,03,39,4.40
2017,11,18,03,40,4.40
2017,11,18,03,41,4.30
2017,11,18,03,42,4.30
2017,11,18,03,43,4.30
2017,11,18,03,44,4.30
2017,11,18,03,45,4.30
2017,11,18,03,46,4.30
2017,11,18,03,47,4.30
2017,11,18,03,48,4.30
2017,11,18,03,49,4.30
2017,11,18,03,50,4.30
2017,11,18,03,51,4.30
2017,11,18,03,52,4.30
2017,11,18,03,53,4.30
2017,11,18,03,54,4.30
2017,11,18,03,55,4.30
2017,11,18,03,56,4.30
2017,11,18,03,57,4.30
2017,11,18,03,58,4.30
2017,11,18,03,59,4.30
2017,11,18,04,00,4.30
2017,11,18,04,01,4.40
2017,11,18,04,02,4.40
2017,11,18,04,03,4.40
2017,11,18,04,04,4.40
2017,11,18,04,05,4.40
2017,11,18,04,06,4.40
2017,11,18,04,07,4.40
2017,11,18,04,08,4.40
2017,11,18,04,09,4.40
2017,11,18,04,10,4.40
2017,11,18,04,11,4.40
2017,11,18,04,12,4.40
2017,11,18,04,13,4.40
2017,11,18,04,14,4.30
2017,11,18,04,15,4.30
2017,11,18,04,16,4.30
2017,11,18,04,17,4.30
2017,11,18,04,18,4.30
2017,11,18,04,19,4.30
2017,11,18,04,20,4.30
2017,11,18,04,21,4.30
2017,11,18,04,22,4.30
2017,11,18,04,23,4.20
2017,11,18,04,24,4.20
2017,11,18,04,25,4.20
2017,11,18,04,26,4.30
2017,11,18,04,27,4.30
2017,11,18,04,28,4.30
2017,11,18,04,29,4.20
2017,11,18,04,30,4.20
2017,11,18,04,31,4.20
2017,11,18,04,32,4.20
2017,11,18,04,33,4.20
2017,11,18,04,34,4.20
2017,11,18,04,35,4.20
2017,11,18,04,36,4.20
2017,11,18,04,37,4.20
2017,11,18,04,38,4.20
2017,11,18,04,39,4.20
2017,11,18,04,40,4.20
2017,11,18,04,41,4.20
2017,11,18,04,42,4.30
2017,11,18,04,43,4.30
2017,11,18,04,44,4.20
2017,11,18,04,45,4.20
2017,11,18,04,46,4.20
2017,11,18,04,47,4.20
2017,11,18,04,48,4.20
2017,11,18,04,49,4.20
2017,11,18,04,50,4.20
2017,11,18,04,51,4.20
2017,11,18,04,52,4.20
2017,11,18,04,53,4.20
2017,11,18,04,54,4.20
2017,11,18,09,26,7.00
2017,11,18,09,27,7.00
2017,11,18,09,28,7.00
2017,11,18,09,29,7.10
2017,11,18,09,30,7.10
2017,11,18,09,31,7.10
2017,11,18,09,32,7.10
2017,11,18,09,33,7.10
2017,11,18,09,34,7.10
2017,11,18,09,35,7.10
2017,11,18,09,36,7.10
2017,11,18,09,37,7.10
2017,11,18,09,38,7.20
2017,11,18,09,39,7.20
2017,11,18,09,40,7.20
2017,11,18,09,41,7.20
2017,11,18,09,42,7.20
2017,11,18,09,43,7.20
2017,11,18,09,44,7.20
2017,11,18,09,45,7.20
2017,11,18,09,46,7.20
2017,11,18,09,47,7.20
2017,11,18,09,48,7.20
2017,11,18,09,49,7.20
2017,11,18,09,50,7.30
2017,11,18,09,51,7.30
2017,11,18,09,52,7.30
2017,11,18,09,53,7.30
2017,11,18,09,54,7.30
2017,11,18,09,55,7.30
2017,11,18,09,56,7.30
2017,11,18,09,57,7.30
2017,11,18,09,58,7.40
2017,11,18,09,59,7.40
2017,11,18,10,00,7.40
2017,11,18,10,01,7.40
2017,11,18,10,02,7.40
2017,11,18,10,03,7.40
2017,11,18,10,04,7.40
2017,11,18,10,05,7.50
2017,11,18,10,06,7.50
2017,11,18,10,07,7.50
2017,11,18,10,08,7.50
2017,11,18,10,09,7.50
2017,11,18,10,10,7.50
2017,11,18,10,11,7.50
2017,11,18,10,12,7.50
2017,11,18,10,13,7.60
2017,11,18,10,14,7.60
2017,11,18,10,15,7.60
2017,11,18,10,16,7.60
2017,11,18,10,17,7.60
2017,11,18,10,18,7.60
2017,11,18,10,19,7.60
2017,11,18,10,20,7.70
2017,11,18,10,21,7.70
2017,11,18,10,22,7.70
2017,11,18,10,23,7.70
2017,11,18,10,24,7.80
2017,11,18,10,25,7.80
2017,11,18,10,26,7.80
2017,11,18,10,27,7.80
2017,11,18,10,28,7.90
2017,11,18,10,29,7.90
2017,11,18,10,30,8.00
2017,11,18,10,31,8.00
2017,11,18,10,32,8.10
2017,11,18,10,33,8.10
2017,11,18,10,34,8.20
2017,11,18,10,35,8.20
2017,11,18,10,36,8.20
2017,11,18,10,37,8.30
2017,11,18,10,38,8.30
2017,11,18,10,39,8.30
2017,11,18,10,40,8.30
2017,11,18,10,41,8.30
2017,11,18,10,42,8.30
2017,11,18,10,43,8.30
2017,11,18,10,44,8.30
2017,11,18,10,45,8.30
2017,11,18,10,46,8.30
2017,11,18,10,47,8.30
2017,11,18,10,48,8.30
2017,11,18,10,49,8.40
2017,11,18,10,50,8.40
2017,11,18,10,51,8.40
2017,11,18,10,52,8.40
2017,11,18,10,53,8.50
2017,11,18,10,54,8.50
2017,11,18,10,55,8.50
2017,11,18,10,56,8.60
2017,11,18,10,57,8.60
2017,11,18,10,58,8.60
2017,11,18,10,59,8.70
2017,11,18,11,00,8.70
2017,11,18,11,01,8.70
2017,11,18,11,02,8.70
2017,11,18,11,03,8.80
2017,11,18,11,04,8.80
2017,11,18,11,05,8.80
2017,11,18,11,06,8.80
2017,11,18,11,07,8.90
2017,11,18,11,08,8.90
2017,11,18,11,09,8.90
2017,11,18,11,10,8.90
2017,11,18,11,11,8.90
2017,11,18,11,12,8.90
2017,11,18,11,13,9.00
2017,11,18,11,14,9.00
2017,11,18,11,15,9.00
2017,11,18,11,16,9.00
2017,11,18,11,17,9.00
2017,11,18,11,18,9.10
2017,11,18,11,19,9.10
2017,11,18,11,20,9.10
2017,11,18,11,21,9.10
2017,11,18,11,22,9.20
2017,11,18,11,23,9.20
2017,11,18,11,24,9.20
2017,11,18,11,25,9.20
2017,11,18,11,26,9.20
2017,11,18,11,27,9.20
2017,11,18,11,28,9.20
2017,11,18,11,29,9.30
2017,11,18,11,30,9.30
2017,11,18,11,31,9.30
2017,11,18,11,32,9.30
2017,11,18,11,33,9.40
2017,11,18,11,34,9.40
2017,11,18,11,35,9.40
2017,11,18,11,36,9.50
2017,11,18,11,37,9.50
2017,11,18,11,38,9.50
2017,11,18,11,39,9.60
2017,11,18,11,40,9.60
2017,11,18,11,41,9.60
2017,11,18,11,42,9.70
2017,11,18,11,43,9.70
2017,11,18,11,44,9.70
2017,11,18,11,45,9.70
2017,11,18,11,46,9.80
2017,11,18,11,47,9.80
2017,11,18,11,48,9.80
2017,11,18,11,49,9.80
2017,11,18,11,50,9.80
2017,11,18,11,51,9.80
2017,11,18,11,52,9.80
2017,11,18,11,53,9.80
2017,11,18,11,54,9.80
2017,11,18,11,55,9.80
2017,11,18,11,56,9.80
2017,11,18,11,57,9.90
2017,11,18,11,58,9.90
2017,11,18,11,59,9.90
2017,11,18,12,00,9.90
2017,11,18,12,01,9.90
2017,11,18,12,02,9.90
2017,11,18,12,03,10.00
2017,11,18,12,04,10.00
2017,11,18,12,05,10.00
2017,11,18,12,06,10.00
2017,11,18,12,07,10.00
2017,11,18,12,08,10.10
2017,11,18,12,09,10.10
2017,11,18,12,10,10.10
2017,11,18,12,11,10.20
2017,11,18,12,12,10.20
2017,11,18,12,13,10.20
2017,11,18,12,14,10.30
2017,11,18,12,15,10.30
2017,11,18,12,16,10.30
2017,11,18,12,17,10.30
2017,11,18,12,18,10.30
2017,11,18,12,19,10.40
2017,11,18,12,20,10.40
2017,11,18,12,21,10.40
2017,11,18,12,22,10.40
2017,11,18,12,23,10.40
2017,11,18,12,24,10.50
2017,11,18,12,25,10.50
2017,11,18,12,26,10.50
2017,11,18,12,27,10.50
2017,11,18,12,28,10.50
2017,11,18,12,29,10.50
2017,11,18,12,30,10.60
2017,11,18,12,31,10.60
2017,11,18,12,32,10.60
2017,11,18,12,33,10.60
2017,11,18,12,34,10.60
2017,11,18,12,35,10.60
2017,11,18,12,36,10.60
2017,11,18,12,37,10.60
2017,11,18,12,38,10.60
2017,11,18,12,39,10.60
2017,11,18,12,40,10.60
2017,11,18,12,41,10.60
2017,11,18,12,42,10.60
2017,11,18,12,43,10.50
2017,11,18,12,44,10.50
2017,11,18,12,45,10.50
2017,11,18,12,46,10.50
2017,11,18,12,47,10.50
2017,11,18,12,48,10.50
2017,11,18,12,49,10.50
2017,11,18,12,50,10.50
2017,11,18,12,51,10.50
2017,11,18,12,52,10.50
2017,11,18,12,53,10.50
2017,11,18,12,54,10.50
2017,11,18,12,55,10.50
2017,11,18,12,56,10.50
2017,11,18,12,57,10.50
2017,11,18,12,58,10.50
2017,11,18,12,59,10.50
2017,11,18,13,00,10.50
2017,11,18,13,01,10.50
2017,11,18,13,02,10.50
2017,11,18,13,03,10.50
2017,11,18,13,04,10.50
2017,11,18,13,05,10.50
2017,11,18,13,06,10.50
2017,11,18,13,07,10.50
2017,11,18,13,08,10.60
2017,11,18,13,09,10.60
2017,11,18,13,10,10.60
2017,11,18,13,11,10.60
2017,11,18,13,12,10.60
2017,11,18,13,13,10.70
2017,11,18,13,14,10.70
2017,11,18,13,15,10.70
2017,11,18,13,16,10.70
2017,11,18,13,17,10.70
2017,11,18,13,18,10.80
2017,11,18,13,19,10.80
2017,11,18,13,20,10.80
2017,11,18,13,21,10.80
2017,11,18,13,22,10.80
2017,11,18,13,23,10.90
2017,11,18,13,24,10.90
2017,11,18,13,25,10.90
2017,11,18,13,26,10.90
2017,11,18,13,27,10.90
2017,11,18,13,28,10.90
2017,11,18,13,29,10.90
2017,11,18,13,30,10.90
2017,11,18,13,31,11.00
2017,11,18,13,32,11.00
2017,11,18,13,33,11.00
2017,11,18,13,34,11.00
2017,11,18,13,35,11.00
2017,11,18,13,36,11.00
2017,11,18,13,37,11.10
2017,11,18,13,38,11.10
2017,11,18,13,39,11.10
2017,11,18,13,40,11.10
2017,11,18,13,41,11.10
2017,11,18,13,42,11.10
2017,11,18,13,43,11.10
2017,11,18,13,44,11.10
2017,11,18,13,45,11.10
2017,11,18,13,46,11.10
2017,11,18,13,47,11.10
2017,11,18,13,48,11.10
2017,11,18,13,49,11.10
2017,11,18,13,50,11.10
2017,11,18,13,51,11.10
2017,11,18,13,52,11.00
2017,11,18,13,53,11.00
2017,11,18,13,54,11.00
2017,11,18,13,55,10.90
2017,11,18,13,56,10.90
2017,11,18,13,57,10.90
2017,11,18,13,58,10.90
2017,11,18,13,59,10.90
2017,11,18,14,00,10.90
2017,11,18,14,01,10.90
2017,11,18,14,02,10.90
2017,11,18,14,03,10.90
2017,11,18,14,04,10.90
2017,11,18,14,05,10.90
2017,11,18,14,06,10.90
2017,11,18,14,07,10.90
2017,11,18,14,08,10.90
2017,11,18,14,09,10.90
2017,11,18,14,10,11.00
2017,11,18,14,11,11.00
2017,11,18,14,12,10.90
2017,11,18,14,13,11.00
2017,11,18,14,14,11.00
2017,11,18,14,15,11.00
2017,11,18,14,16,11.00
2017,11,18,14,17,11.00
2017,11,18,14,18,11.00
2017,11,18,14,19,10.90
2017,11,18,14,20,10.90
2017,11,18,14,21,10.90
2017,11,18,14,22,10.90
2017,11,18,14,23,10.90
2017,11,18,14,24,10.90
2017,11,18,14,25,10.90
2017,11,18,14,26,10.90
2017,11,18,14,27,10.90
2017,11,18,14,28,10.90
2017,11,18,14,29,10.90
2017,11,18,14,30,10.90
2017,11,18,14,31,10.90
2017,11,18,14,32,10.90
2017,11,18,14,33,10.80
2017,11,18,14,34,10.90
2017,11,18,14,35,10.80
2017,11,18,14,36,10.80
2017,11,18,14,37,10.80
2017,11,18,14,38,10.80
2017,11,18,14,39,10.80
2017,11,18,14,40,10.80
2017,11,18,14,41,10.80
2017,11,18,14,42,10.80
2017,11,18,14,43,10.80
2017,11,18,14,44,10.80
2017,11,18,14,45,10.70
2017,11,18,14,46,10.70
2017,11,18,14,47,10.70
2017,11,18,14,48,10.70
2017,11,18,14,49,10.70
2017,11,18,14,50,10.70
2017,11,18,14,51,10.70
2017,11,18,14,52,10.70
2017,11,18,14,53,10.70
2017,11,18,14,54,10.70
2017,11,18,14,55,10.70
2017,11,18,14,56,10.70
2017,11,18,14,57,10.70
2017,11,18,14,58,10.70
2017,11,18,14,59,10.70
2017,11,18,15,00,10.70
2017,11,18,15,01,10.70
2017,11,18,15,02,10.70
2017,11,18,15,03,10.60
2017,11,18,15,04,10.60
2017,11,18,15,05,10.60
2017,11,18,15,06,10.60
2017,11,18,15,07,10.60
2017,11,18,15,08,10.60
2017,11,18,15,09,10.60
2017,11,18,15,10,10.60
2017,11,18,15,11,10.60
2017,11,18,15,12,10.60
2017,11,18,15,13,10.60
2017,11,18,15,14,10.60
2017,11,18,15,15,10.50
2017,11,18,15,16,10.50
2017,11,18,15,17,10.50
2017,11,18,15,18,10.50
2017,11,18,15,19,10.50
2017,11,18,15,20,10.50
2017,11,18,15,21,10.50
2017,11,18,15,22,10.50
2017,11,18,15,23,10.40
2017,11,18,15,24,10.40
2017,11,18,15,25,10.40
2017,11,18,15,26,10.40
2017,11,18,15,27,10.40
2017,11,18,15,28,10.40
2017,11,18,15,29,10.40
2017,11,18,15,30,10.40
2017,11,18,15,31,10.40
2017,11,18,15,32,10.40
2017,11,18,15,33,10.40
2017,11,18,15,34,10.40
2017,11,18,15,35,10.40
2017,11,18,15,36,10.40
2017,11,18,15,37,10.40
2017,11,18,15,38,10.40
2017,11,18,15,39,10.40
2017,11,18,15,40,10.40
2017,11,18,15,41,10.40
2017,11,18,15,42,10.40
2017,11,18,15,43,10.40
2017,11,18,15,44,10.40
2017,11,18,15,45,10.40
2017,11,18,15,46,10.30
2017,11,18,15,47,10.40
2017,11,18,15,48,10.30
2017,11,18,15,49,10.30
2017,11,18,15,50,10.30
2017,11,18,15,51,10.30
2017,11,18,15,52,10.30
2017,11,18,15,53,10.30
2017,11,18,15,54,10.30
2017,11,18,15,55,10.30
2017,11,18,15,56,10.30
2017,11,18,15,57,10.30
2017,11,18,15,58,10.30
2017,11,18,15,59,10.30
2017,11,18,16,00,10.20
2017,11,18,16,01,10.20
2017,11,18,16,02,10.20
2017,11,18,16,03,10.20
2017,11,18,16,04,10.20
2017,11,18,16,05,10.10
2017,11,18,16,06,10.10
2017,11,18,16,07,10.10
2017,11,18,16,08,10.00
2017,11,18,16,09,9.90
2017,11,18,16,10,9.90
2017,11,18,16,11,9.80
2017,11,18,16,12,9.80
2017,11,18,16,13,9.70
2017,11,18,16,14,9.70
2017,11,18,16,15,9.70
2017,11,18,16,16,9.70
2017,11,18,16,17,9.60
2017,11,18,16,18,9.60
2017,11,18,16,19,9.60
2017,11,18,16,20,9.60
2017,11,18,16,21,9.60
2017,11,18,16,22,9.60
2017,11,18,16,23,9.60
2017,11,18,16,24,9.60
2017,11,18,16,25,9.60
2017,11,18,16,26,9.50
2017,11,18,16,27,9.50
2017,11,18,16,28,9.50
2017,11,18,16,29,9.50
2017,11,18,16,30,9.50
2017,11,18,16,31,9.50
2017,11,18,16,32,9.50
2017,11,18,16,33,9.50
2017,11,18,16,34,9.50
2017,11,18,16,35,9.40
2017,11,18,16,36,9.40
2017,11,18,16,37,9.40
2017,11,18,16,38,9.40
2017,11,18,16,39,9.40
2017,11,18,16,40,9.40
2017,11,18,16,41,9.40
2017,11,18,16,42,9.40
2017,11,18,16,43,9.40
2017,11,18,16,44,9.40
2017,11,18,16,45,9.40
2017,11,18,16,46,9.40
2017,11,18,16,47,9.40
2017,11,18,16,48,9.40
2017,11,18,16,49,9.30
2017,11,18,16,50,9.30
2017,11,18,16,51,9.30
2017,11,18,16,52,9.30
2017,11,18,16,53,9.30
2017,11,18,16,54,9.30
2017,11,18,16,55,9.30
2017,11,18,16,56,9.30
2017,11,18,16,57,9.30
2017,11,18,16,58,9.30
2017,11,18,16,59,9.30
2017,11,18,17,00,9.30
2017,11,18,17,01,9.20
2017,11,18,17,02,9.30
2017,11,18,17,03,9.20
2017,11,18,17,04,9.20
2017,11,18,17,05,9.20
2017,11,18,17,06,9.20
2017,11,18,17,07,9.20
2017,11,18,17,08,9.20
2017,11,18,17,09,9.20
2017,11,18,17,10,9.10
2017,11,18,17,11,9.10
2017,11,18,17,12,9.10
2017,11,18,17,13,9.10
2017,11,18,17,14,9.10
2017,11,18,17,15,9.10
2017,11,18,17,16,9.10
2017,11,18,17,17,9.10
2017,11,18,17,18,9.10
2017,11,18,17,19,9.10
2017,11,18,17,20,9.10
2017,11,18,17,21,9.10
2017,11,18,17,22,9.10
2017,11,18,17,23,9.10
2017,11,18,17,24,9.00
2017,11,18,17,25,9.00
2017,11,18,17,26,9.00
2017,11,18,17,27,9.00
2017,11,18,17,28,9.00
2017,11,18,17,29,9.00
2017,11,18,17,30,9.00
2017,11,18,17,31,9.00
2017,11,18,17,32,9.00
2017,11,18,17,33,9.00
2017,11,18,17,34,8.90
2017,11,18,17,35,8.90
2017,11,18,17,36,8.90
2017,11,18,17,37,8.90
2017,11,18,17,38,8.90
2017,11,18,17,39,8.90
2017,11,18,17,40,8.90
2017,11,18,17,41,8.90
2017,11,18,17,42,8.90
2017,11,18,17,43,8.90
2017,11,18,17,44,8.90
2017,11,18,17,45,8.90
2017,11,18,17,46,8.90
2017,11,18,17,47,8.90
2017,11,18,17,48,8.90
2017,11,18,17,49,8.90
2017,11,18,17,50,8.90
2017,11,18,17,51,8.90
2017,11,18,17,52,8.90
2017,11,18,17,53,8.90
2017,11,18,17,54,8.90
2017,11,18,17,55,8.90
2017,11,18,17,56,8.90
2017,11,18,17,57,8.90
2017,11,18,17,58,8.90
2017,11,18,17,59,8.90
2017,11,18,18,00,8.90
2017,11,18,18,01,8.90
2017,11,18,18,02,8.90
2017,11,18,18,03,8.90
2017,11,18,18,04,8.90
2017,11,18,18,05,8.90
2017,11,18,18,06,8.90
2017,11,18,18,07,9.00
2017,11,18,18,08,9.00
2017,11,18,18,09,9.00
2017,11,18,18,10,9.00
2017,11,18,18,11,9.00
2017,11,18,18,12,9.10
2017,11,18,18,13,9.10
2017,11,18,18,14,9.10
2017,11,18,18,15,9.10
2017,11,18,18,16,9.10
2017,11,18,18,17,9.10
2017,11,18,18,18,9.10
2017,11,18,18,19,9.10
2017,11,18,18,20,9.10
2017,11,18,18,21,9.10
2017,11,18,18,22,9.10
2017,11,18,18,23,9.10
2017,11,18,18,24,9.20
2017,11,18,18,25,9.20
2017,11,18,18,26,9.20
2017,11,18,18,27,9.20
2017,11,18,18,28,9.20
2017,11,18,18,29,9.20
2017,11,18,18,30,9.10
2017,11,18,18,31,9.10
2017,11,18,18,32,9.10
2017,11,18,18,33,9.10
2017,11,18,18,34,9.10
2017,11,18,18,35,9.10
2017,11,18,18,36,9.10
2017,11,18,18,37,9.10
2017,11,18,18,38,9.10
2017,11,18,18,39,9.10
2017,11,18,18,40,9.10
2017,11,18,18,41,9.10
2017,11,18,18,42,9.10
2017,11,18,18,43,9.10
2017,11,18,18,44,9.10
2017,11,18,18,45,9.10
2017,11,18,18,46,9.10
2017,11,18,18,47,9.10
2017,11,18,18,48,9.10
2017,11,18,18,49,9.10
2017,11,18,18,50,9.10
2017,11,18,18,51,9.10
2017,11,18,18,52,9.10
2017,11,18,18,53,9.10
2017,11,18,18,54,9.10
2017,11,18,18,55,9.10
2017,11,18,18,56,9.10
2017,11,18,18,57,9.10
2017,11,18,18,58,9.10
2017,11,18,18,59,9.10
2017,11,18,19,00,9.10
2017,11,18,19,01,9.10
2017,11,18,19,02,9.10
2017,11,18,19,03,9.10
2017,11,18,19,04,9.10
2017,11,18,19,05,9.10
2017,11,18,19,06,9.10
2017,11,18,19,07,9.10
2017,11,18,19,08,9.20
2017,11,18,19,09,9.20
2017,11,18,19,10,9.20
2017,11,18,19,11,9.20
2017,11,18,19,12,9.20
2017,11,18,19,13,9.20
2017,11,18,19,14,9.20
2017,11,18,19,15,9.20
2017,11,18,19,16,9.20
2017,11,18,19,17,9.20
2017,11,18,19,18,9.20
2017,11,18,19,19,9.20
2017,11,18,19,20,9.20
2017,11,18,19,21,9.20
2017,11,18,19,22,9.20
2017,11,18,19,23,9.20
2017,11,18,19,24,9.20
2017,11,18,19,25,9.20
2017,11,18,19,26,9.20
2017,11,18,19,27,9.20
2017,11,18,19,28,9.20
2017,11,18,19,29,9.20
2017,11,18,19,30,9.20
2017,11,18,19,31,9.20
2017,11,18,19,32,9.20
2017,11,18,19,33,9.10
2017,11,18,19,34,9.10
2017,11,18,19,35,9.10
2017,11,18,19,36,9.10
2017,11,18,19,37,9.10
2017,11,18,19,38,9.10
2017,11,18,19,39,9.10
2017,11,18,19,40,9.10
2017,11,18,19,41,9.10
2017,11,18,19,42,9.00
2017,11,18,19,43,9.00
2017,11,18,19,44,9.00
2017,11,18,19,45,9.00
2017,11,18,19,46,9.00
2017,11,18,19,47,9.00
2017,11,18,19,48,8.90
2017,11,18,19,49,8.90
2017,11,18,19,50,8.90
2017,11,18,19,51,8.90
2017,11,18,19,52,8.90
2017,11,18,19,53,8.90
2017,11,18,19,54,8.90
2017,11,18,19,55,8.90
2017,11,18,19,56,8.90
2017,11,18,19,57,8.90
2017,11,18,19,58,8.90
2017,11,18,19,59,8.90
2017,11,18,20,00,8.90
2017,11,18,20,01,8.90
2017,11,18,20,02,8.80
2017,11,18,20,03,8.80
2017,11,18,20,04,8.80
2017,11,18,20,05,8.80
2017,11,18,20,06,8.80
2017,11,18,20,07,8.80
2017,11,18,20,08,8.80
2017,11,18,20,09,8.80
2017,11,18,20,10,8.80
2017,11,18,20,11,8.80
2017,11,18,20,12,8.80
2017,11,18,20,13,8.80
2017,11,18,20,14,8.80
2017,11,18,20,15,8.80
2017,11,18,20,16,8.80
2017,11,18,20,17,8.80
2017,11,18,20,18,8.80
2017,11,18,20,19,8.80
2017,11,18,20,20,8.80
2017,11,18,20,21,8.80
2017,11,18,20,22,8.80
2017,11,18,20,23,8.80
2017,11,18,20,24,8.80
2017,11,18,20,25,8.80
2017,11,18,20,26,8.80
2017,11,18,20,27,8.80
2017,11,18,20,28,8.80
2017,11,18,20,29,8.80
2017,11,18,20,30,8.80
2017,11,18,20,31,8.80
2017,11,18,20,32,8.80
2017,11,18,20,33,8.80
2017,11,18,20,34,8.80
2017,11,18,20,35,8.80
2017,11,18,20,36,8.80
2017,11,18,20,37,8.80
2017,11,18,20,38,8.80
2017,11,18,20,39,8.80
2017,11,18,20,40,8.80
2017,11,18,20,41,8.80
2017,11,18,20,42,8.80
2017,11,18,20,43,8.80
2017,11,18,20,44,8.80
2017,11,18,20,45,8.80
2017,11,18,20,46,8.80
2017,11,18,20,47,8.80
2017,11,18,20,48,8.80
2017,11,18,20,49,8.80
2017,11,18,20,50,8.80
2017,11,18,20,51,8.80
2017,11,18,20,52,8.80
2017,11,18,20,53,8.80
2017,11,18,20,54,8.80
2017,11,18,20,55,8.80
2017,11,18,20,56,8.80
2017,11,18,20,57,8.80
2017,11,18,20,58,8.90
2017,11,18,20,59,8.90
2017,11,18,21,00,8.90
2017,11,18,21,01,8.90
2017,11,18,21,02,8.90
2017,11,18,21,03,8.90
2017,11,18,21,04,8.90
2017,11,18,21,05,8.90
2017,11,18,21,06,8.80
2017,11,18,21,07,8.80
2017,11,18,21,08,8.80
2017,11,18,21,09,8.80
2017,11,18,21,10,8.80
2017,11,18,21,11,8.80
2017,11,18,21,12,8.80
2017,11,18,21,13,8.80
2017,11,18,21,14,8.80
2017,11,18,21,15,8.80
2017,11,18,21,16,8.80
2017,11,18,21,17,8.80
2017,11,18,21,18,8.80
2017,11,18,21,19,8.80
2017,11,18,21,20,8.80
2017,11,18,21,21,8.80
2017,11,18,21,22,8.80
2017,11,18,21,23,8.80
2017,11,18,21,24,8.80
2017,11,18,21,25,8.80
2017,11,18,21,26,8.80
2017,11,18,21,27,8.70
2017,11,18,21,28,8.70
2017,11,18,21,29,8.70
2017,11,18,21,30,8.70
2017,11,18,21,31,8.70
2017,11,18,21,32,8.70
2017,11,18,21,33,8.70
2017,11,18,21,34,8.70
2017,11,18,21,35,8.80
2017,11,18,21,36,8.80
2017,11,18,21,37,8.80
2017,11,18,21,38,8.80
2017,11,18,21,39,8.80
2017,11,18,21,40,8.80
2017,11,18,21,41,8.80
2017,11,18,21,42,8.80
2017,11,18,21,43,8.80
2017,11,18,21,44,8.80
2017,11,18,21,45,8.80
2017,11,18,21,46,8.80
2017,11,18,21,47,8.80
2017,11,18,21,48,8.80
2017,11,18,21,49,8.90
2017,11,18,21,50,8.90
2017,11,18,21,51,8.90
2017,11,18,21,52,9.00
2017,11,18,21,53,9.00
2017,11,18,21,54,9.00
2017,11,18,21,55,9.00
2017,11,18,21,56,9.10
2017,11,18,21,57,9.10
2017,11,18,21,58,9.10
2017,11,18,21,59,9.10
2017,11,18,22,00,9.10
2017,11,18,22,01,9.10
2017,11,18,22,02,9.10
2017,11,18,22,03,9.10
2017,11,18,22,04,9.10
2017,11,18,22,05,9.10
2017,11,18,22,06,9.20
2017,11,18,22,07,9.20
2017,11,18,22,08,9.20
2017,11,18,22,09,9.20
2017,11,18,22,10,9.10
2017,11,18,22,11,9.10
2017,11,18,22,12,9.10
2017,11,18,22,13,9.10
2017,11,18,22,14,9.10
2017,11,18,22,15,9.10
2017,11,18,22,16,9.10
2017,11,18,22,17,9.10
2017,11,18,22,18,9.10
2017,11,18,22,19,9.10
2017,11,18,22,20,9.10
2017,11,18,22,21,9.10
2017,11,18,22,22,9.10
2017,11,18,22,23,9.10
2017,11,18,22,24,9.00
2017,11,18,22,25,9.10
2017,11,18,22,26,9.00